#�ϑ�����,���ϕ���,���ϕ���,�ő啗��,�ő啗����������,�ő�u�ԕ���,�ő�u�ԕ�����������
#(�N����),(m/s)   ,(16����),(m/s)   ,(16����)        ,(m/s)       ,(16����)            
2017/3/3 0:01,4.3,16,4.3,16,12.7,16
2017/3/3 0:02,4.9,16,4.9,16,11.5,16
2017/3/3 0:03,5.3,16,5.3,16,10.8,15
2017/3/3 0:04,5.5,15,5.5,16,11.6,1
2017/3/3 0:05,5.9,16,5.9,16,15.7,16
2017/3/3 0:06,6.3,16,6.3,16,12.1,16
2017/3/3 0:07,6.6,16,6.6,16,14.9,15
2017/3/3 0:08,7,16,7,16,12.5,1
2017/3/3 0:09,7.2,16,7.2,16,19.2,15
2017/3/3 0:10,7.4,16,7.5,16,17.6,16
2017/3/3 0:11,7.7,16,7.8,16,13.3,16
2017/3/3 0:12,7.4,16,7.6,16,11.4,16
2017/3/3 0:13,7.5,16,7.5,16,13.3,15
2017/3/3 0:14,7.7,16,7.7,16,13.1,15
2017/3/3 0:15,7.4,16,7.7,16,9.3,15
2017/3/3 0:16,7.3,16,7.4,16,8.4,15
2017/3/3 0:17,7.2,16,7.3,16,12.5,16
2017/3/3 0:18,7.4,16,7.4,16,15.9,16
2017/3/3 0:19,7.4,16,7.4,16,19.4,16
2017/3/3 0:20,7.3,16,7.4,16,15.6,16
2017/3/3 0:21,7,16,7.3,16,9.5,16
2017/3/3 0:22,6.9,16,7.1,16,7.7,15
2017/3/3 0:23,6.4,16,6.9,16,5.2,15
2017/3/3 0:24,6.1,16,6.4,16,7.1,1
2017/3/3 0:25,5.8,16,6,16,6.7,13
2017/3/3 0:26,5.7,16,5.8,16,8.6,15
2017/3/3 0:27,5.7,15,5.7,16,14.5,1
2017/3/3 0:28,5.4,15,5.7,16,13.5,16
2017/3/3 0:29,5,15,5.4,16,8.3,15
2017/3/3 0:30,4.6,15,4.9,16,6.7,16
2017/3/3 0:31,4.7,15,4.7,16,13.2,16
2017/3/3 0:32,4.8,15,4.8,16,10.5,16
2017/3/3 0:33,5.2,15,5.2,16,10.8,15
2017/3/3 0:34,5.7,15,5.7,16,12.7,16
2017/3/3 0:35,6.1,15,6.1,15,10.7,15
2017/3/3 0:36,6.1,15,6.2,15,8.6,15
2017/3/3 0:37,5.7,15,6.2,15,6.8,16
2017/3/3 0:38,5.4,15,5.7,15,6.1,14
2017/3/3 0:39,5.5,15,5.5,15,9,16
2017/3/3 0:40,5.7,15,5.7,15,11.8,15
2017/3/3 0:41,5.7,16,5.7,15,10.2,16
2017/3/3 0:42,5.6,16,5.7,15,7.9,1
2017/3/3 0:43,5.5,16,5.6,15,9.1,16
2017/3/3 0:44,5.2,16,5.5,15,7.8,16
2017/3/3 0:45,4.8,16,5.2,15,6.2,16
2017/3/3 0:46,4.7,16,4.8,15,6.8,1
2017/3/3 0:47,4.8,16,4.8,15,10.2,1
2017/3/3 0:48,5.1,16,5.1,15,13.8,16
2017/3/3 0:49,5.4,16,5.4,15,15.3,16
2017/3/3 0:50,5.4,16,5.4,16,12.1,16
2017/3/3 0:51,5.3,16,5.5,16,11.3,16
2017/3/3 0:52,5.5,16,5.5,16,11.9,15
2017/3/3 0:53,5.3,16,5.5,16,9.9,2
2017/3/3 0:54,5.5,16,5.5,16,13.4,15
2017/3/3 0:55,5.7,16,5.7,16,9,1
2017/3/3 0:56,5.8,16,5.8,16,9.7,15
2017/3/3 0:57,6,16,6,16,12.2,16
2017/3/3 0:58,6.1,16,6.1,16,11.7,15
2017/3/3 0:59,6,16,6.1,16,10.7,15
2017/3/3 1:00,6.2,16,6.2,16,13.2,16
2017/3/3 1:01,6.1,16,6.1,16,8.9,15
2017/3/3 1:02,6,16,6.1,16,10.7,1
2017/3/3 1:03,6.1,16,6.1,16,9.2,16
2017/3/3 1:04,6,16,6.1,16,7.7,15
2017/3/3 1:05,5.8,16,5.9,16,5.6,15
2017/3/3 1:06,5.6,16,5.8,16,6.1,1
2017/3/3 1:07,5.3,16,5.6,16,6.7,16
2017/3/3 1:08,5,16,5.2,16,8.4,15
2017/3/3 1:09,4.9,16,5.1,16,10.2,15
2017/3/3 1:10,4.7,16,4.9,16,12.1,16
2017/3/3 1:11,4.8,16,4.8,16,12.6,16
2017/3/3 1:12,4.8,16,4.8,16,9,16
2017/3/3 1:13,4.6,16,4.8,16,8.1,15
2017/3/3 1:14,4.5,16,4.6,16,8.5,16
2017/3/3 1:15,4.5,16,4.5,16,7.2,16
2017/3/3 1:16,4.7,15,4.7,16,7.5,15
2017/3/3 1:17,4.5,15,4.7,16,5.5,15
2017/3/3 1:18,4.4,15,4.6,16,8.9,15
2017/3/3 1:19,4.1,15,4.4,16,4.1,13
2017/3/3 1:20,4.2,15,4.2,16,13.3,15
2017/3/3 1:21,4.4,15,4.4,16,14.9,16
2017/3/3 1:22,4.5,15,4.5,16,11.9,16
2017/3/3 1:23,4.9,15,4.9,15,12.6,16
2017/3/3 1:24,5.2,15,5.2,15,12.7,16
2017/3/3 1:25,5.2,15,5.3,15,9.4,15
2017/3/3 1:26,5.4,15,5.4,15,11.1,15
2017/3/3 1:27,5.9,15,5.9,15,10.2,16
2017/3/3 1:28,6.3,16,6.3,16,14.5,16
2017/3/3 1:29,7,16,7,16,17.4,15
2017/3/3 1:30,6.9,16,7.2,16,15.6,1
2017/3/3 1:31,7,16,7,16,13.5,16
2017/3/3 1:32,7.1,16,7.1,16,12.7,16
2017/3/3 1:33,6.7,16,7,16,7.6,15
2017/3/3 1:34,6.3,16,6.6,16,8.1,15
2017/3/3 1:35,6.5,16,6.5,16,9.1,16
2017/3/3 1:36,6.2,16,6.4,16,6.8,15
2017/3/3 1:37,6,16,6.1,16,7,16
2017/3/3 1:38,5.5,16,6,16,4.7,1
2017/3/3 1:39,4.8,15,5.4,16,5.6,15
2017/3/3 1:40,4.5,15,4.7,16,4.4,13
2017/3/3 1:41,3.8,15,4.4,16,3,2
2017/3/3 1:42,3.4,16,3.7,16,4.8,2
2017/3/3 1:43,3.7,15,3.7,16,12.2,14
2017/3/3 1:44,3.8,16,3.8,16,10.8,1
2017/3/3 1:45,3.9,16,3.9,16,10.8,16
2017/3/3 1:46,3.9,16,3.9,16,7.1,16
2017/3/3 1:47,3.8,16,4,16,6.7,16
2017/3/3 1:48,4,16,4,16,8.5,1
2017/3/3 1:49,4.3,16,4.3,15,8.7,16
2017/3/3 1:50,4.6,16,4.6,16,8.5,2
2017/3/3 1:51,5.1,16,5.1,16,10,16
2017/3/3 1:52,5.6,16,5.6,16,13,1
2017/3/3 1:53,5.4,16,5.7,16,9.5,15
2017/3/3 1:54,5.2,16,5.4,16,6.3,16
2017/3/3 1:55,5,16,5.1,16,6,15
2017/3/3 1:56,5.2,16,5.2,16,8.9,15
2017/3/3 1:57,5.6,16,5.6,16,9.9,1
2017/3/3 1:58,5.7,16,5.7,16,10.5,16
2017/3/3 1:59,5.7,16,5.8,16,10.3,1
2017/3/3 2:00,5.8,16,5.9,16,8.7,1
2017/3/3 2:01,5.6,16,5.8,16,7.5,16
2017/3/3 2:02,5.5,16,5.6,16,12.5,16
2017/3/3 2:03,5.4,16,5.5,16,8.6,2
2017/3/3 2:04,5.6,16,5.7,16,7.7,2
2017/3/3 2:05,5.9,16,5.9,16,8.6,16
2017/3/3 2:06,6,16,6,16,9.9,16
2017/3/3 2:07,6.1,16,6.1,16,10.9,1
2017/3/3 2:08,6.1,16,6.2,16,11.3,15
2017/3/3 2:09,6.1,16,6.1,16,12.5,15
2017/3/3 2:10,6.1,16,6.1,16,9.3,16
2017/3/3 2:11,6.3,16,6.3,16,10.8,16
2017/3/3 2:12,6.1,16,6.2,16,10.7,15
2017/3/3 2:13,6.2,16,6.2,16,10.2,15
2017/3/3 2:14,6.3,16,6.3,16,10.2,16
2017/3/3 2:15,6.2,16,6.3,16,9.5,16
2017/3/3 2:16,6,16,6.1,16,10.5,16
2017/3/3 2:17,5.8,16,6.1,16,8.4,1
2017/3/3 2:18,5.3,16,5.8,16,5.1,15
2017/3/3 2:19,5.2,16,5.3,16,7.7,15
2017/3/3 2:20,5.1,16,5.2,16,7,16
2017/3/3 2:21,5,16,5.1,16,7.6,1
2017/3/3 2:22,4.9,16,5,16,7.1,1
2017/3/3 2:23,4.9,16,4.9,16,8.7,16
2017/3/3 2:24,4.7,16,4.9,16,7.7,15
2017/3/3 2:25,4.5,16,4.7,16,6.1,16
2017/3/3 2:26,4.3,16,4.6,16,7.7,16
2017/3/3 2:27,4.2,16,4.3,16,8.3,14
2017/3/3 2:28,4.3,16,4.3,16,5.6,13
2017/3/3 2:29,4.2,16,4.3,16,5.5,16
2017/3/3 2:30,4.1,15,4.2,16,6.2,16
2017/3/3 2:31,4,16,4.1,16,6.9,1
2017/3/3 2:32,3.8,16,3.9,16,4.9,16
2017/3/3 2:33,3.7,15,3.8,16,5.7,16
2017/3/3 2:34,3.5,15,3.7,16,4.8,15
2017/3/3 2:35,3.3,15,3.4,16,2.7,12
2017/3/3 2:36,3,15,3.3,16,1.5,14
2017/3/3 2:37,2.7,14,3,16,1.6,11
2017/3/3 2:38,2.5,15,2.7,16,2.7,15
2017/3/3 2:39,2.4,15,2.5,16,3.5,16
2017/3/3 2:40,2.4,15,2.4,15,6.4,14
2017/3/3 2:41,2.2,14,2.4,15,5.1,13
2017/3/3 2:42,2,14,2.2,16,4.4,2
2017/3/3 2:43,2.2,14,2.2,15,9.2,15
2017/3/3 2:44,2.4,14,2.4,15,8.2,1
2017/3/3 2:45,2.6,14,2.6,15,6.5,15
2017/3/3 2:46,2.8,15,2.8,15,3.9,16
2017/3/3 2:47,3,15,3,15,4.4,16
2017/3/3 2:48,3.1,15,3.1,15,5.8,16
2017/3/3 2:49,3,15,3.1,15,2.4,15
2017/3/3 2:50,2.8,15,3,15,2.9,15
2017/3/3 2:51,2.9,15,2.9,15,3,12
2017/3/3 2:52,2.8,15,2.9,15,2.2,12
2017/3/3 2:53,2.5,15,2.8,15,2.6,2
2017/3/3 2:54,2.1,15,2.4,15,3.3,16
2017/3/3 2:55,1.8,15,2.1,15,1.9,13
2017/3/3 2:56,1.8,14,1.8,15,2.2,14
2017/3/3 2:57,1.6,14,1.8,15,2.7,12
2017/3/3 2:58,1.6,14,1.6,15,4.3,15
2017/3/3 2:59,1.8,14,1.8,15,5,15
2017/3/3 3:00,1.6,14,1.8,15,3,16
2017/3/3 3:01,1.6,14,1.6,15,3.9,14
2017/3/3 3:02,1.7,15,1.7,15,3.8,16
2017/3/3 3:03,1.6,14,1.7,15,1.5,4
2017/3/3 3:04,1.5,14,1.6,15,3.8,16
2017/3/3 3:05,1.7,15,1.7,15,5.8,2
2017/3/3 3:06,2.2,16,2.2,16,9.3,16
2017/3/3 3:07,2.5,16,2.5,16,7.4,15
2017/3/3 3:08,2.5,16,2.6,16,4.3,14
2017/3/3 3:09,2.5,15,2.6,16,4.8,10
2017/3/3 3:10,2.7,14,2.7,15,4.3,9
2017/3/3 3:11,2.6,15,2.7,15,3.1,9
2017/3/3 3:12,2.5,15,2.6,15,3.5,16
2017/3/3 3:13,2.6,16,2.6,15,2,4
2017/3/3 3:14,2.6,16,2.7,15,2.9,3
2017/3/3 3:15,2.4,15,2.6,15,1,12
2017/3/3 3:16,2,13,2.4,15,3.3,10
2017/3/3 3:17,1.8,11,2,15,5.1,9
2017/3/3 3:18,1.9,10,1.9,15,6.8,9
2017/3/3 3:19,1.9,10,1.9,15,4.2,10
2017/3/3 3:20,1.8,10,1.9,14,2.7,10
2017/3/3 3:21,1.9,11,1.9,16,3,13
2017/3/3 3:22,1.8,11,1.9,16,1.6,13
2017/3/3 3:23,1.7,11,1.8,16,0.6,14
2017/3/3 3:24,1.7,11,1.7,16,2.9,15
2017/3/3 3:25,1.8,11,1.8,15,3.6,15
2017/3/3 3:26,1.9,12,1.9,13,3.3,13
2017/3/3 3:27,1.8,12,1.9,11,3,13
2017/3/3 3:28,1.7,12,1.8,10,3.6,9
2017/3/3 3:29,1.6,13,1.7,9,4.1,12
2017/3/3 3:30,1.7,13,1.7,10,3.2,1
2017/3/3 3:31,1.6,13,1.7,11,1.9,15
2017/3/3 3:32,1.8,14,1.8,11,3.9,2
2017/3/3 3:33,1.8,14,1.8,11,2.7,2
2017/3/3 3:34,1.9,14,1.9,11,3.8,16
2017/3/3 3:35,1.9,14,1.9,11,2.7,13
2017/3/3 3:36,1.8,14,1.9,12,2,13
2017/3/3 3:37,1.9,15,1.9,14,4.2,16
2017/3/3 3:38,2,15,2,15,4.9,16
2017/3/3 3:39,2,16,2,15,6.7,14
2017/3/3 3:40,2.2,16,2.2,16,7.6,15
2017/3/3 3:41,2.3,16,2.4,16,3.8,16
2017/3/3 3:42,2.3,16,2.4,16,3.6,2
2017/3/3 3:43,2.6,16,2.6,16,7.1,1
2017/3/3 3:44,2.7,16,2.7,16,7,16
2017/3/3 3:45,2.8,16,2.8,16,4.4,16
2017/3/3 3:46,2.8,16,2.8,16,2.7,16
2017/3/3 3:47,2.7,16,2.8,16,3.7,14
2017/3/3 3:48,2.6,16,2.7,16,4.7,15
2017/3/3 3:49,2.6,15,2.7,16,6.1,12
2017/3/3 3:50,2.4,15,2.6,16,2.6,13
2017/3/3 3:51,2.2,14,2.3,16,1.5,15
2017/3/3 3:52,2.1,14,2.2,16,1.3,15
2017/3/3 3:53,1.9,14,2.1,16,2,12
2017/3/3 3:54,1.6,14,1.8,16,2.1,14
2017/3/3 3:55,1.5,14,1.6,16,1.5,16
2017/3/3 3:56,1.3,14,1.5,16,0.6,3
2017/3/3 3:57,1.2,14,1.3,16,1.3,11
2017/3/3 3:58,1.1,14,1.2,15,1.3,11
2017/3/3 3:59,0.8,14,1,15,1.9,16
2017/3/3 4:00,0.8,15,0.8,15,2.6,16
2017/3/3 4:01,0.9,15,0.9,14,2.7,16
2017/3/3 4:02,1,15,1,14,1.8,1
2017/3/3 4:03,1,15,1,14,1.6,11
2017/3/3 4:04,1,15,1,14,1.8,13
2017/3/3 4:05,1,14,1,14,2.1,15
2017/3/3 4:06,1.1,14,1.1,14,1.4,14
2017/3/3 4:07,1.2,14,1.2,14,1.9,12
2017/3/3 4:08,1.2,14,1.2,14,3.1,15
2017/3/3 4:09,1.3,14,1.3,14,3.2,15
2017/3/3 4:10,1.4,14,1.4,14,3.5,15
2017/3/3 4:11,1.5,14,1.5,14,3.8,15
2017/3/3 4:12,1.7,14,1.7,14,3.7,14
2017/3/3 4:13,1.7,14,1.7,14,3.5,15
2017/3/3 4:14,1.7,14,1.8,14,2.2,15
2017/3/3 4:15,1.8,14,1.8,14,2.6,14
2017/3/3 4:16,1.8,14,1.8,14,1.6,14
2017/3/3 4:17,1.8,14,1.8,14,1.5,9
2017/3/3 4:18,1.7,14,1.8,14,1.8,9
2017/3/3 4:19,1.6,14,1.7,14,1,8
2017/3/3 4:20,1.4,13,1.6,14,1.5,11
2017/3/3 4:21,1.2,12,1.4,14,1.4,11
2017/3/3 4:22,0.9,12,1.2,14,0.6,15
2017/3/3 4:23,0.7,12,0.9,14,0.5,13
2017/3/3 4:24,0.6,11,0.7,14,0.4,5
2017/3/3 4:25,0.5,10,0.6,14,0.8,6
2017/3/3 4:26,0.5,9,0.5,14,2,8
2017/3/3 4:27,0.4,9,0.5,14,1.3,8
2017/3/3 4:28,0.5,9,0.5,14,1.5,11
2017/3/3 4:29,0.5,10,0.5,14,1.1,9
2017/3/3 4:30,0.4,10,0.5,13,0.4,16
2017/3/3 4:31,0.4,10,0.4,12,1.1,13
2017/3/3 4:32,0.6,11,0.6,12,2,13
2017/3/3 4:33,0.7,11,0.7,11,1.4,15
2017/3/3 4:34,0.8,12,0.8,12,2,14
2017/3/3 4:35,0.9,13,0.9,13,2.4,15
2017/3/3 4:36,1,14,1,13,2.4,16
2017/3/3 4:37,1.1,14,1.1,14,2,15
2017/3/3 4:38,1.1,14,1.1,14,1.4,12
2017/3/3 4:39,1.2,14,1.2,14,2.1,12
2017/3/3 4:40,1.2,14,1.2,14,1.6,13
2017/3/3 4:41,1.3,13,1.3,14,1.8,11
2017/3/3 4:42,1.3,13,1.3,14,1.9,11
2017/3/3 4:43,1.3,13,1.3,14,1.3,12
2017/3/3 4:44,1.3,13,1.3,14,1.4,13
2017/3/3 4:45,1.2,13,1.3,14,1.3,15
2017/3/3 4:46,1,13,1.1,14,0.9,11
2017/3/3 4:47,1,12,1,14,2.6,14
2017/3/3 4:48,1,13,1.1,14,2.2,12
2017/3/3 4:49,1.1,13,1.1,14,3.6,14
2017/3/3 4:50,1.2,13,1.2,14,2.9,13
2017/3/3 4:51,1.3,13,1.3,13,2.7,12
2017/3/3 4:52,1.5,13,1.5,13,3.7,12
2017/3/3 4:53,1.6,13,1.6,13,4.2,13
2017/3/3 4:54,1.8,12,1.8,13,5.2,10
2017/3/3 4:55,2,12,2,12,4.3,9
2017/3/3 4:56,2,12,2.1,12,2.6,9
2017/3/3 4:57,2,11,2,12,3.2,3
2017/3/3 4:58,2.1,11,2.1,12,2.5,4
2017/3/3 4:59,2,12,2.1,12,2.2,1
2017/3/3 5:00,1.9,12,2,12,1.6,13
2017/3/3 5:01,1.7,12,1.9,12,1.3,13
2017/3/3 5:02,1.6,12,1.7,12,2.1,13
2017/3/3 5:03,1.5,12,1.6,12,1.6,11
2017/3/3 5:04,1.3,12,1.5,12,2.2,9
2017/3/3 5:05,1.2,12,1.3,12,1.6,8
2017/3/3 5:06,1.1,12,1.2,11,0.9,9
2017/3/3 5:07,1.1,12,1.1,11,2.5,9
2017/3/3 5:08,1.2,11,1.2,11,3.2,9
2017/3/3 5:09,1.1,11,1.2,12,2.4,11
2017/3/3 5:10,1.3,10,1.3,12,3.9,10
2017/3/3 5:11,1.3,10,1.3,12,2.5,9
2017/3/3 5:12,1.2,10,1.3,12,1.8,2
2017/3/3 5:13,1.2,9,1.2,12,1.9,10
2017/3/3 5:14,1.1,10,1.2,12,2.1,11
2017/3/3 5:15,1.2,10,1.2,10,2.9,11
2017/3/3 5:16,1.3,10,1.3,10,2.4,10
2017/3/3 5:17,1.4,10,1.4,10,2.9,11
2017/3/3 5:18,1.4,11,1.4,10,2.6,11
2017/3/3 5:19,1.6,11,1.6,11,2.5,11
2017/3/3 5:20,1.5,11,1.5,11,2.1,12
2017/3/3 5:21,1.5,11,1.5,11,1.9,12
2017/3/3 5:22,1.5,12,1.5,11,1.1,13
2017/3/3 5:23,1.5,12,1.5,11,1.5,15
2017/3/3 5:24,1.4,12,1.5,11,1.4,15
2017/3/3 5:25,1.3,13,1.5,11,1.1,16
2017/3/3 5:26,1.2,13,1.3,11,0.8,14
2017/3/3 5:27,1.1,14,1.2,11,1.6,16
2017/3/3 5:28,0.9,14,1.1,11,0.5,13
2017/3/3 5:29,0.8,14,0.9,11,1.1,12
2017/3/3 5:30,0.6,14,0.7,11,1.1,15
2017/3/3 5:31,0.6,14,0.6,11,1.5,15
2017/3/3 5:32,0.7,14,0.7,12,2.6,14
2017/3/3 5:33,0.8,14,0.8,12,2.5,12
2017/3/3 5:34,1,13,1,12,4.7,10
2017/3/3 5:35,1.4,13,1.4,13,5,9
2017/3/3 5:36,1.6,12,1.6,12,4.7,9
2017/3/3 5:37,1.6,12,1.6,12,2.5,10
2017/3/3 5:38,1.6,12,1.6,12,1.9,12
2017/3/3 5:39,1.7,12,1.7,12,2.7,15
2017/3/3 5:40,1.8,12,1.8,12,3,14
2017/3/3 5:41,1.8,12,1.9,12,1.6,13
2017/3/3 5:42,1.7,12,1.8,12,1,13
2017/3/3 5:43,1.6,12,1.7,12,0.6,15
2017/3/3 5:44,1.3,12,1.5,12,0.5,1
2017/3/3 5:45,1,13,1.3,12,2,15
2017/3/3 5:46,0.8,14,1,12,2.2,16
2017/3/3 5:47,0.9,14,0.9,12,2,15
2017/3/3 5:48,0.8,14,0.9,12,0.9,9
2017/3/3 5:49,0.8,13,0.9,12,2,11
2017/3/3 5:50,0.7,13,0.8,12,1.3,11
2017/3/3 5:51,0.7,13,0.7,12,2.4,14
2017/3/3 5:52,0.7,14,0.7,12,1.9,14
2017/3/3 5:53,0.8,14,0.8,12,1.8,16
2017/3/3 5:54,0.8,14,0.8,12,1.9,1
2017/3/3 5:55,0.8,13,0.8,13,1.9,13
2017/3/3 5:56,0.9,13,0.9,14,2.4,13
2017/3/3 5:57,1,13,1,13,2.7,12
2017/3/3 5:58,1.1,13,1.1,13,1.9,12
2017/3/3 5:59,1.1,13,1.1,13,2.1,12
2017/3/3 6:00,1.2,13,1.2,13,1.6,12
2017/3/3 6:01,1.2,13,1.2,13,1.6,12
2017/3/3 6:02,1.2,13,1.2,13,1.9,15
2017/3/3 6:03,1.3,13,1.3,13,3.2,16
2017/3/3 6:04,1.4,13,1.4,13,2.6,16
2017/3/3 6:05,1.5,13,1.5,13,3.1,16
2017/3/3 6:06,1.5,14,1.5,13,2.9,15
2017/3/3 6:07,1.5,14,1.5,13,1.8,11
2017/3/3 6:08,1.7,14,1.7,14,4.8,13
2017/3/3 6:09,2,14,2,14,6.8,11
2017/3/3 6:10,2.4,13,2.4,13,6.1,11
2017/3/3 6:11,2.7,13,2.7,13,5.2,11
2017/3/3 6:12,3,13,3,13,4.9,10
2017/3/3 6:13,3,12,3,13,3.9,11
2017/3/3 6:14,3,12,3,13,2.2,12
2017/3/3 6:15,3,12,3.1,12,2.7,13
2017/3/3 6:16,3.1,12,3.1,12,2.7,13
2017/3/3 6:17,3.2,12,3.2,12,3,12
2017/3/3 6:18,3.1,12,3.2,12,3.1,12
2017/3/3 6:19,2.8,12,3,12,3.8,9
2017/3/3 6:20,2.6,12,2.8,12,3.9,10
2017/3/3 6:21,2.4,12,2.6,12,3.3,12
2017/3/3 6:22,2.1,12,2.4,12,1.3,13
2017/3/3 6:23,1.9,12,2.1,12,1.8,16
2017/3/3 6:24,1.9,12,1.9,12,2.7,12
2017/3/3 6:25,2,12,2,12,3.3,13
2017/3/3 6:26,2,12,2,12,2.9,13
2017/3/3 6:27,2,12,2,12,2.9,13
2017/3/3 6:28,2,12,2,12,3,12
2017/3/3 6:29,1.9,13,2,12,1.8,12
2017/3/3 6:30,1.7,13,1.9,12,1.6,11
2017/3/3 6:31,1.6,13,1.6,12,2.2,16
2017/3/3 6:32,1.7,13,1.7,12,2.2,13
2017/3/3 6:33,1.7,13,1.7,12,2,13
2017/3/3 6:34,1.8,13,1.8,12,2.6,12
2017/3/3 6:35,1.7,13,1.8,12,2.9,13
2017/3/3 6:36,1.8,13,1.8,12,3.5,12
2017/3/3 6:37,1.8,13,1.8,12,3.3,12
2017/3/3 6:38,1.7,13,1.8,12,3,11
2017/3/3 6:39,1.9,13,1.9,13,3.2,12
2017/3/3 6:40,2,13,2,13,3.8,12
2017/3/3 6:41,2.2,12,2.2,12,3.7,9
2017/3/3 6:42,2.3,12,2.3,12,4.2,11
2017/3/3 6:43,2.3,12,2.3,12,3,10
2017/3/3 6:44,2.3,12,2.3,12,3.1,13
2017/3/3 6:45,2.2,12,2.3,12,2.5,13
2017/3/3 6:46,2,12,2.2,12,2.7,16
2017/3/3 6:47,1.8,12,2,12,1.4,11
2017/3/3 6:48,1.8,12,1.8,12,2.5,15
2017/3/3 6:49,1.8,12,1.8,12,3.6,11
2017/3/3 6:50,1.6,12,1.8,12,2.1,10
2017/3/3 6:51,1.7,12,1.7,12,4.9,10
2017/3/3 6:52,1.7,12,1.7,12,4.4,11
2017/3/3 6:53,1.8,12,1.8,12,3.2,11
2017/3/3 6:54,1.8,12,1.8,12,2.5,10
2017/3/3 6:55,1.8,12,1.8,12,3,10
2017/3/3 6:56,2,11,2,12,4.3,11
2017/3/3 6:57,2.1,11,2.1,11,3.5,10
2017/3/3 6:58,2.1,11,2.1,11,3,14
2017/3/3 6:59,2,11,2.1,11,1.8,8
2017/3/3 7:00,2.1,11,2.1,11,3.3,12
2017/3/3 7:01,2,11,2.1,11,3,10
2017/3/3 7:02,1.9,11,2,11,3.5,10
2017/3/3 7:03,1.8,11,1.9,11,3.7,10
2017/3/3 7:04,1.8,11,1.8,11,2.4,10
2017/3/3 7:05,1.7,11,1.8,11,2.2,11
2017/3/3 7:06,1.5,11,1.7,11,0.5,13
2017/3/3 7:07,1.3,11,1.5,11,0.8,16
2017/3/3 7:08,1.2,12,1.3,11,1.4,14
2017/3/3 7:09,1.3,12,1.3,11,1.6,14
2017/3/3 7:10,1.1,12,1.3,11,0.6,12
2017/3/3 7:11,1,12,1.1,11,1,12
2017/3/3 7:12,0.9,13,0.9,11,1.8,15
2017/3/3 7:13,0.7,14,0.9,11,1.4,16
2017/3/3 7:14,0.8,14,0.8,11,2.9,13
2017/3/3 7:15,0.9,14,0.9,11,3.5,12
2017/3/3 7:16,1.1,14,1.1,11,3,13
2017/3/3 7:17,1.3,14,1.3,11,2.6,12
2017/3/3 7:18,1.4,13,1.4,14,3,14
2017/3/3 7:19,1.4,13,1.4,14,2.7,13
2017/3/3 7:20,1.6,13,1.6,13,2.6,15
2017/3/3 7:21,1.6,14,1.7,14,2.7,15
2017/3/3 7:22,1.6,14,1.6,14,1.6,16
2017/3/3 7:23,1.6,13,1.6,14,3,11
2017/3/3 7:24,1.7,13,1.7,14,3.3,9
2017/3/3 7:25,1.7,13,1.7,14,2.9,11
2017/3/3 7:26,1.6,13,1.7,14,2.6,10
2017/3/3 7:27,1.6,13,1.6,14,2.5,13
2017/3/3 7:28,1.6,13,1.6,14,2.6,13
2017/3/3 7:29,1.7,13,1.7,14,2.7,12
2017/3/3 7:30,1.7,12,1.7,14,3.2,12
2017/3/3 7:31,1.8,12,1.8,12,2.9,12
2017/3/3 7:32,1.8,12,1.8,12,2.2,11
2017/3/3 7:33,1.8,12,1.9,12,2.1,10
2017/3/3 7:34,1.6,12,1.8,12,1.8,10
2017/3/3 7:35,1.5,12,1.6,12,2,10
2017/3/3 7:36,1.4,12,1.5,12,1.8,13
2017/3/3 7:37,1.5,12,1.5,12,3.1,12
2017/3/3 7:38,1.5,11,1.5,12,3.3,13
2017/3/3 7:39,1.5,12,1.6,12,3.2,13
2017/3/3 7:40,1.5,12,1.5,12,3,15
2017/3/3 7:41,1.5,12,1.5,12,3.5,13
2017/3/3 7:42,1.7,12,1.7,12,3.7,12
2017/3/3 7:43,1.9,13,1.9,13,4.5,14
2017/3/3 7:44,2,13,2,13,2.2,15
2017/3/3 7:45,1.9,13,2,13,1.4,11
2017/3/3 7:46,1.9,13,1.9,13,2.1,1
2017/3/3 7:47,1.7,13,1.9,13,0.5,6
2017/3/3 7:48,1.5,14,1.7,13,0.3,6
2017/3/3 7:49,1.3,13,1.5,13,0.8,7
2017/3/3 7:50,1.2,13,1.3,13,1,8
2017/3/3 7:51,1.1,13,1.2,13,1.6,4
2017/3/3 7:52,0.8,14,1,13,0.8,2
2017/3/3 7:53,0.6,14,0.8,13,0.8,14
2017/3/3 7:54,0.5,10,0.5,13,1.4,9
2017/3/3 7:55,0.5,8,0.5,13,3.2,11
2017/3/3 7:56,0.7,10,0.7,13,6,12
2017/3/3 7:57,0.9,11,0.9,13,2.2,12
2017/3/3 7:58,1.1,12,1.1,14,4.1,15
2017/3/3 7:59,1.3,13,1.3,13,3.9,15
2017/3/3 8:00,1.3,13,1.4,14,2.1,3
2017/3/3 8:01,1.3,13,1.4,14,1.6,14
2017/3/3 8:02,1.5,13,1.5,13,2.1,13
2017/3/3 8:03,1.6,13,1.6,13,1.9,13
2017/3/3 8:04,1.6,13,1.6,13,0.8,13
2017/3/3 8:05,1.5,13,1.5,13,0.8,11
2017/3/3 8:06,1.2,13,1.5,13,0.9,12
2017/3/3 8:07,1.2,13,1.2,13,2,13
2017/3/3 8:08,1,13,1.2,13,1.4,13
2017/3/3 8:09,0.8,13,1,13,0.8,15
2017/3/3 8:10,0.8,13,0.8,13,1.1,15
2017/3/3 8:11,0.7,13,0.8,13,1.4,16
2017/3/3 8:12,0.6,13,0.7,13,1.5,14
2017/3/3 8:13,0.6,14,0.6,13,1.8,15
2017/3/3 8:14,0.7,14,0.7,13,3,14
2017/3/3 8:15,0.9,14,0.9,13,3.3,13
2017/3/3 8:16,1.1,14,1.1,13,3.1,13
2017/3/3 8:17,1.2,14,1.2,13,2.7,12
2017/3/3 8:18,1.3,14,1.3,14,3.2,12
2017/3/3 8:19,1.5,13,1.5,13,3.5,11
2017/3/3 8:20,1.5,13,1.5,13,2.2,14
2017/3/3 8:21,1.6,13,1.6,13,2.1,13
2017/3/3 8:22,1.6,13,1.6,13,1.8,13
2017/3/3 8:23,1.6,12,1.6,13,1.4,11
2017/3/3 8:24,1.6,12,1.6,13,1.8,11
2017/3/3 8:25,1.5,12,1.6,13,2.1,12
2017/3/3 8:26,1.5,12,1.5,13,2,12
2017/3/3 8:27,1.4,12,1.5,13,1.8,10
2017/3/3 8:28,1.5,12,1.5,13,4.7,15
2017/3/3 8:29,1.6,12,1.6,13,4.4,16
2017/3/3 8:30,1.7,13,1.7,12,5.4,1
2017/3/3 8:31,1.8,13,1.8,13,3.1,14
2017/3/3 8:32,2,13,2,13,4.3,16
2017/3/3 8:33,2.3,14,2.3,14,6,16
2017/3/3 8:34,2.5,14,2.5,14,4.4,16
2017/3/3 8:35,2.6,14,2.6,14,4.1,15
2017/3/3 8:36,2.7,15,2.7,15,5.6,16
2017/3/3 8:37,2.9,15,2.9,15,5.7,16
2017/3/3 8:38,3,15,3,15,4.3,15
2017/3/3 8:39,3,15,3,15,6,15
2017/3/3 8:40,3.1,15,3.1,15,6.1,16
2017/3/3 8:41,3.3,15,3.3,15,6.5,16
2017/3/3 8:42,3.3,15,3.3,15,3.9,1
2017/3/3 8:43,3,15,3.2,15,3.8,15
2017/3/3 8:44,2.9,15,3,15,3.5,16
2017/3/3 8:45,3.1,15,3.1,15,6.1,15
2017/3/3 8:46,3,15,3.1,15,5.6,15
2017/3/3 8:47,3,15,3,15,5.1,15
2017/3/3 8:48,3,15,3,15,4.7,15
2017/3/3 8:49,2.8,15,3,15,2.5,1
2017/3/3 8:50,2.5,16,2.8,15,1.8,15
2017/3/3 8:51,2.4,16,2.5,15,3.9,15
2017/3/3 8:52,2.5,16,2.5,15,6.3,16
2017/3/3 8:53,2.6,16,2.6,15,6.2,15
2017/3/3 8:54,2.9,16,2.9,15,6.3,16
2017/3/3 8:55,2.7,16,2.9,15,5.5,16
2017/3/3 8:56,2.7,16,2.7,15,4.2,15
2017/3/3 8:57,2.7,15,2.8,15,4.2,15
2017/3/3 8:58,2.6,15,2.6,15,4.8,14
2017/3/3 8:59,2.7,15,2.7,16,4.3,1
2017/3/3 9:00,2.8,15,2.8,16,4.2,16
2017/3/3 9:01,2.8,15,2.9,16,3.6,15
2017/3/3 9:02,2.5,15,2.7,16,1.1,12
2017/3/3 9:03,2.3,14,2.5,16,2.6,12
2017/3/3 9:04,2,14,2.3,16,2.7,12
2017/3/3 9:05,1.9,14,2,15,1.6,1
2017/3/3 9:06,1.7,14,1.9,15,0.8,15
2017/3/3 9:07,1.6,14,1.7,15,2.2,14
2017/3/3 9:08,1.5,14,1.6,15,2.9,1
2017/3/3 9:09,1.3,14,1.5,15,2.5,16
2017/3/3 9:10,1.3,14,1.3,15,4.1,16
2017/3/3 9:11,1.4,15,1.4,15,4.9,16
2017/3/3 9:12,1.7,15,1.7,15,5.8,14
2017/3/3 9:13,1.8,15,1.8,14,6.1,16
2017/3/3 9:14,2,16,2,14,5.1,15
2017/3/3 9:15,2.1,15,2.1,16,3.8,1
2017/3/3 9:16,2.4,15,2.4,15,6.4,16
2017/3/3 9:17,2.6,16,2.6,16,6.3,16
2017/3/3 9:18,2.9,16,2.9,16,7.4,15
2017/3/3 9:19,3.2,16,3.2,16,5,1
2017/3/3 9:20,3.2,16,3.2,16,6,15
2017/3/3 9:21,3.3,16,3.3,16,6.4,14
2017/3/3 9:22,3.4,16,3.5,16,6.5,15
2017/3/3 9:23,3.3,16,3.4,16,4.7,15
2017/3/3 9:24,3.3,16,3.4,16,6.9,14
2017/3/3 9:25,3.7,15,3.7,15,6.8,15
2017/3/3 9:26,3.7,15,3.8,15,6.3,15
2017/3/3 9:27,3.6,15,3.7,15,4.4,15
2017/3/3 9:28,3.3,15,3.6,15,3,14
2017/3/3 9:29,3.2,15,3.3,15,3.6,14
2017/3/3 9:30,3.2,15,3.2,15,6.2,14
2017/3/3 9:31,3.3,15,3.3,15,7.7,15
2017/3/3 9:32,3.2,15,3.3,15,6.3,16
2017/3/3 9:33,3.3,15,3.3,15,5.4,16
2017/3/3 9:34,2.9,15,3.2,15,2.5,15
2017/3/3 9:35,2.5,15,2.9,15,3,11
2017/3/3 9:36,2.4,15,2.5,15,3.2,11
2017/3/3 9:37,2.3,14,2.4,15,2,13
2017/3/3 9:38,2.2,14,2.3,15,2.4,13
2017/3/3 9:39,2.2,14,2.2,15,2.6,11
2017/3/3 9:40,2,14,2.2,15,1.5,12
2017/3/3 9:41,1.6,14,1.9,15,3,15
2017/3/3 9:42,1.7,13,1.7,15,5.7,15
2017/3/3 9:43,1.7,13,1.7,15,3.9,15
2017/3/3 9:44,1.7,13,1.7,15,3.3,10
2017/3/3 9:45,1.8,13,1.8,15,3,13
2017/3/3 9:46,1.8,12,1.8,15,3.1,11
2017/3/3 9:47,1.9,12,1.9,14,3.9,10
2017/3/3 9:48,1.9,12,1.9,14,2.7,11
2017/3/3 9:49,2,12,2,14,3.7,10
2017/3/3 9:50,2.1,12,2.1,12,3.2,11
2017/3/3 9:51,2.1,12,2.1,12,3.5,15
2017/3/3 9:52,2,12,2.1,12,4.5,16
2017/3/3 9:53,2,12,2,12,4.4,15
2017/3/3 9:54,2.2,12,2.2,12,7.6,14
2017/3/3 9:55,2.5,13,2.5,13,6.5,15
2017/3/3 9:56,2.6,14,2.6,13,3.8,15
2017/3/3 9:57,2.6,14,2.6,13,5.4,14
2017/3/3 9:58,2.7,14,2.7,14,4.2,14
2017/3/3 9:59,2.8,15,2.8,14,4.5,13
2017/3/3 10:00,2.8,15,2.8,14,3.5,16
2017/3/3 10:01,2.8,15,2.8,14,3.1,13
2017/3/3 10:02,2.7,14,2.8,14,3.2,16
2017/3/3 10:03,2.7,14,2.8,14,4.3,13
2017/3/3 10:04,2.5,14,2.7,14,3.3,15
2017/3/3 10:05,2.3,14,2.5,14,3.2,15
2017/3/3 10:06,2.3,14,2.3,14,4.5,14
2017/3/3 10:07,2.3,14,2.4,14,5.6,15
2017/3/3 10:08,2.4,14,2.4,14,5.1,14
2017/3/3 10:09,2.4,14,2.4,15,4.5,15
2017/3/3 10:10,2.4,14,2.4,15,2.6,15
2017/3/3 10:11,2.2,14,2.3,15,0.9,14
2017/3/3 10:12,2.1,14,2.2,14,1.9,13
2017/3/3 10:13,2,14,2,14,3,13
2017/3/3 10:14,2,14,2,14,3.6,13
2017/3/3 10:15,2.2,14,2.2,14,4.2,14
2017/3/3 10:16,2.2,13,2.2,14,4.1,11
2017/3/3 10:17,2.1,13,2.2,14,3.7,10
2017/3/3 10:18,2,12,2.1,14,3.5,9
2017/3/3 10:19,2,12,2,14,4.2,11
2017/3/3 10:20,2.2,12,2.2,14,5,11
2017/3/3 10:21,2.5,12,2.5,12,4.3,9
2017/3/3 10:22,2.7,11,2.7,11,4.4,10
2017/3/3 10:23,2.9,11,2.9,11,5.1,9
2017/3/3 10:24,2.8,11,2.9,11,4.1,11
2017/3/3 10:25,2.7,11,2.8,11,3.9,10
2017/3/3 10:26,2.6,10,2.7,11,3.3,9
2017/3/3 10:27,2.6,10,2.7,11,4.7,10
2017/3/3 10:28,2.7,10,2.7,11,4.7,11
2017/3/3 10:29,2.5,10,2.7,11,2.5,9
2017/3/3 10:30,2.4,10,2.5,11,4.9,10
2017/3/3 10:31,2.4,10,2.4,11,4.1,11
2017/3/3 10:32,2.2,10,2.4,11,3.7,10
2017/3/3 10:33,2.1,10,2.2,11,3.2,10
2017/3/3 10:34,2,11,2.1,11,3.1,11
2017/3/3 10:35,2,11,2,11,2.4,13
2017/3/3 10:36,2,11,2,10,3,12
2017/3/3 10:37,2,11,2,10,3.6,11
2017/3/3 10:38,1.9,11,2,10,4.8,10
2017/3/3 10:39,1.9,11,1.9,10,3.5,10
2017/3/3 10:40,1.8,11,1.9,10,3.5,12
2017/3/3 10:41,1.6,12,1.8,10,2.5,13
2017/3/3 10:42,1.7,12,1.7,10,3.5,13
2017/3/3 10:43,1.7,12,1.7,10,2,13
2017/3/3 10:44,1.7,12,1.7,11,3,12
2017/3/3 10:45,1.8,12,1.8,11,3.9,12
2017/3/3 10:46,1.7,12,1.8,11,2.1,14
2017/3/3 10:47,1.6,12,1.7,11,1.8,11
2017/3/3 10:48,1.6,12,1.6,11,2.1,14
2017/3/3 10:49,1.5,13,1.6,11,2,15
2017/3/3 10:50,1.4,13,1.5,11,1.8,16
2017/3/3 10:51,1.4,13,1.4,12,1.9,15
2017/3/3 10:52,1.3,13,1.4,12,3,16
2017/3/3 10:53,1.2,14,1.3,12,2,1
2017/3/3 10:54,1.1,14,1.2,12,1.4,14
2017/3/3 10:55,1.1,14,1.2,12,3.3,16
2017/3/3 10:56,1.3,15,1.3,12,4.1,16
2017/3/3 10:57,1.3,15,1.3,12,3.3,15
2017/3/3 10:58,1.3,15,1.3,12,2.2,14
2017/3/3 10:59,1.4,15,1.4,13,2.2,15
2017/3/3 11:00,1.5,15,1.5,15,3.9,15
2017/3/3 11:01,1.5,15,1.5,15,2.6,1
2017/3/3 11:02,1.6,15,1.6,15,3.2,16
2017/3/3 11:03,1.7,15,1.7,15,2.7,16
2017/3/3 11:04,1.8,15,1.8,15,3,14
2017/3/3 11:05,1.8,15,1.9,15,3.7,1
2017/3/3 11:06,1.7,14,1.8,15,3.6,15
2017/3/3 11:07,1.8,14,1.8,15,4.4,13
2017/3/3 11:08,1.9,14,1.9,15,4.2,15
2017/3/3 11:09,2.1,14,2.1,14,3.6,13
2017/3/3 11:10,2,14,2.1,14,3,13
2017/3/3 11:11,2.2,14,2.2,14,4.2,13
2017/3/3 11:12,2.2,13,2.2,14,2.9,12